Yunyao-1 56

operational
NORAD ID: 63292 Int'l Des: NNA 2025-055 Owner: YYAO Country: CN
LEOCIRCULARRETROGRADESSO

About Yunyao-1 56

Description loading...

Live Position

Loading 3D Globe...

Upcoming Passes

Altitude History

Altitude vs Time

uPlot chart will show altitude changes over time

Two-Line Element Set

1 63292U 25055B 26103.20770510 .00005994 00000-0 31980-3 0 9994
2 63292 97.6398 243.9937 0023392 355.2349 4.8656 15.15301097 59266
Epoch: Apr 13, 2026 • Age: 3 hours

Current Status

Altitude 517.2 km
Velocity 7.61 km/s
Sub-Earth Point 46.08°N, 90.74°W
Launch Date Mar 17, 2025
Age 1 years
Type other

Technical Details

Classification Payload
Mass 50.00 kg
Dry Mass 50.00 kg
Total Mass 50.00 kg
Length 2.00 m
Diameter 1.50 m
Span 5.00 m
Shape Box + pan
Manufacturer CGSTL
Bus Type YY-1
Phase Status In Orbit
Owner/State YYAO/CN

Large Constellations

Loading constellations...